www.pogodaiklimat.ru
ПОГОДА в Аммане
Время
(UTC), дата
00 23.05
03 23.05
06 23.05
09 23.05
12 23.05
15 23.05
18 23.05
21 23.05
00 24.05
03 24.05
06 24.05
09 24.05
12 24.05
15 24.05
18 24.05
21 24.05
00 25.05
03 25.05
06 25.05
09 25.05
12 25.05
15 25.05
18 25.05
21 25.05
00 26.05
03 26.05
06 26.05
09 26.05
12 26.05
15 26.05
18 26.05
21 26.05
00 27.05
03 27.05
06 27.05
09 27.05
12 27.05
15 27.05
18 27.05
21 27.05
00 28.05
03 28.05
06 28.05
09 28.05
12 28.05
15 28.05
18 28.05
21 28.05
00 29.05
03 29.05
06 29.05
09 29.05
12 29.05
15 29.05
18 29.05
21 29.05
Ветер
(напр.,м/с)
Видим. Явления Облачность Т
(С)
Тd
(С)
f
(%)
Тe
(С)
Тes
(С)
Комфортность P
(гПа)
Po
(гПа)
Тmin
(С)
Tmax
(С)
R
(мм)
R24
(мм)
S
(см)
З 7 7000 м мгла 4/0
[Ac lent Ci sp]
+17.8 +11.8 68 +17 +17 по сезону 1012.5 927.1
З 4 7000 м мгла 5/3 900 м
[Cu hum Cc]
+16.8 +12.3 75 +16 +16 прохладно 1012.4 926.5
З 4 7000 м мгла 5/3 900 м
[Cu hum Ci sp]
+19.2 +12.7 66 +20 +25 по сезону 1013.3 926.8 +16.8
З 7 6000 м мгла 6/3 900 м
[Cu med, cong As op Ci sp]
+22.2 +10.6 48 +24 +28 комфорт 1013.3 926.8
З 6 6000 м мгла 6/3 900 м
[Cu med, cong Ac trans Ci sp]
+24.6 +10.8 42 +26 +29 жарко 1012.2 925.6
СЗ 9 6000 м пыльный позёмок 3/3 900 м
[Cu hum]
+23.2 +8.8 40 +25 +25 комфорт 1011.5 924.6
З 7 7000 м мгла 1/1 900 м
[Cu hum]
+18.0 +10.5 62 +17 +17 прохладно 1012.1 924.8 +26.0
З 6 7000 м мгла 1/1 1050 м
[Cu hum]
+15.2 +10.1 72 +14 +14 холодно 1012.1 924.8
З 8 6000 м пыльный позёмок 6/6 900 м
[Cu Sc]
+14.4 +9.6 73 +12 +12 холодно 1010.3 923.4
З 6 7000 м пыльный позёмок 6/6 900 м
[Cu Sc]
+13.6 +9.5 76 +11 +11 очень
холодно
1009.8 922.6
З 8 5000 м слаб. дождь 9/6 750 м
[Cu Sc]
+14.4 +9.1 70 +12 +12 очень
холодно
1010.3 922.4 +13.4 0.0
СЗ 6 2000 м слаб. дождь 10/10 450 м
[Cu Sc]
+12.8 +10.6 86 +10 +10 очень
холодно
1012.3 923.6
СЗ 6 8000 м {дождь} 6/6 750 м
[Cu Sc]
+17.0 +9.2 60 +16 +18 очень
холодно
1010.9 922.8 6
СЗ 8 6000 м мгла 5/5 750 м
[Cu hum]
+17.3 +2.3 37 +16 +16 очень
холодно
1011.2 923.0
З 7 6000 м мгла 1/1 900 м
[Cu hum]
+14.4 +6.0 57 +13 +13 очень
холодно
1013.0 924.4 +19.1 6
З 5 6000 м мгла ясно +12.9 +7.8 71 +11 +11 очень
холодно
1014.1 924.9
З 2 6000 м мгла ясно +12.1 +8.0 76 +11 +11 холодно 1013.1 924.5
З 5 4000 м мгла 1/1 1200 м
[Cu hum]
+11.4 +8.1 80 +9 +9 очень
холодно
1013.0 924.4
З 5 5000 м мгла 6/6 900 м
[Cu Sc]
+14.8 +9.2 69 +13 +15 очень
холодно
1014.6 925.9 +11.1
З 5 10 км 8/8 900 м
[Cu hum]
+18.2 +6.8 47 +18 +20 холодно 1015.8 927.3
З 6 10 км 1/1 900 м
[Cu hum]
+21.9 +5.5 34 +22 +28 комфорт 1014.6 926.6
З 6 7000 м ясно +21.8 +5.6 35 +22 +23 комфорт 1015.2 927.0
СЗ 4 8000 м мгла ясно +17.5 +6.9 50 +17 +17 холодно 1016.4 928.0 +23.2
штиль 0 8000 м мгла ясно +14.2 +6.7 61 +14 +14 холодно 1016.6 928.2
ЮЗ 1 8000 м мгла ясно +15.0 +8.3 64 +16 +16 по сезону 1015.0 927.4
СВ 2 6000 м мгла ясно +13.0 +6.6 65 +13 +13 холодно 1015.7 927.7
В 3 8000 м мгла ясно +20.6 +5.9 38 +22 +30 комфорт 1015.6 928.1 +12.6
штиль 0 10 км ясно +26.2 +1.7 20 +25 +53 комфорт 1014.8 927.7
Ю 2 10 км 3/0 2000 м
[Ac trans]
+29.6 -2.5 12 +26 +39 жарко 1012.4 926.1
З 3 6000 м 3/0
[Ci fib]
+28.0 -1.2 15 +25 +27 комфорт 1009.2 924.9
штиль 0 8000 м 5/0
[Ci sp]
+24.0 +7.5 35 +24 +24 комфорт 1011.9 925.6 +31.5
штиль 0 8000 м мгла ясно +21.0 +8.1 43 +22 +22 комфорт 1011.9 926.0
штиль 0 8000 м мгла 1/0 2000 м
[Ac trans]
+20.0 +8.6 48 +21 +21 комфорт 1011.5 925.2
штиль 0 4000 м мгла ясно +18.2 +8.5 53 +18 +19 тепло 1010.8 924.8
штиль 0 4000 м дым ясно +25.0 +7.5 33 +25 +38 комфорт 1010.9 925.3 +18.0
З 2 5000 м мгла ясно +30.6 +4.0 19 +29 +50 жарко 1010.0 924.8
ЮЗ 5 5000 м мгла ясно +29.8 +9.0 27 +29 +37 жарко 1009.2 923.8
З 7 5000 м мгла ясно +27.0 +8.1 30 +27 +27 жарко 1010.6 924.5
З 5 8000 м мгла ясно +21.6 +5.4 35 +22 +22 комфорт 1010.9 925.0 +32.4
СЗ 4 8000 м мгла ясно +18.2 +2.8 36 +18 +18 тепло 1011.7 926.0
З 5 8000 м мгла 1/0 2000 м
[Ac trans]
+16.4 +4.6 45 +16 +16 тепло 1013.0 926.1
З 5 8000 м мгла 4/0 2000 м
[Ac trans]
+14.8 +10.0 73 +13 +13 по сезону 1013.2 926.4
СЗ 7 8000 м мгла 3/0 2000 м
[Ac trans]
+18.4 +12.1 67 +18 +19 тепло 1015.7 927.1 +13.0
З 6 6000 м мгла 3/0 2000 м
[Ac trans]
+22.4 +9.6 44 +24 +32 комфорт 1012.9 926.0
З 7 5000 м мгла 3/1 1200 м
[Cu hum Ac trans]
+24.2 +9.8 40 +25 +28 комфорт 1012.6 925.7
СЗ 7 5000 м мгла ясно +22.2 +8.8 42 +24 +24 комфорт 1012.5 925.1
СЗ 4 8000 м мгла ясно +16.6 +8.3 58 +16 +16 по сезону 1014.0 926.1 +25.0
СЗ 5 10 км 1/1 450 м
[St]
+14.7 +10.1 74 +13 +13 по сезону 1013.7 926.2
СЗ 5 10 км 1/1 450 м
[Cu hum]
+13.2 +10.2 82 +11 +11 по сезону 1015.6 925.4
СЗ 7 10 км 9/9 600 м
[St]
+13.9 +9.0 72 +12 +12 по сезону 1014.2 926.5
СЗ 7 10 км 8/8 600 м
[Cu hum]
+17.0 +8.6 58 +16 +17 тепло 1015.8 927.6 +13.4
СЗ 7 10 км 3/3 750 м
[Cu hum]
+20.0 +5.8 39 +20 +24 тепло 1015.8 927.8
З 6 10 км 1/1 750 м
[Cu hum]
+21.9 +5.2 34 +22 +28 комфорт 1015.2 927.3
СЗ 7 10 км 1/1 750 м
[Cu hum]
+19.8 +6.3 41 +20 +21 тепло 1015.2 927.1
СЗ 5 10 км 1/1 600 м
[St]
+15.0 +8.3 64 +14 +14 по сезону 1016.0 927.6 +22.8
З 4 10 км 1/1 600 м
[St]
+13.0 +9.0 77 +11 +11 по сезону 1016.2 927.9
Местоположение метеостанции Амман (Иордания): широта 31.98 долгота 35.98 высота над уровнем моря 779 м.
В архиве по умолчанию представлена погода в Аммане за последнюю неделю. Архивные данные за месяц целиком и за предыдущие месяцы, начиная с января 2011 года, Вы можете получить, выбрав интересующий диапазон дат из раскрывающегося списка и нажав кнопку "Найти!".
*Определитесь, кто Вы:
Внимание! Время в таблицах - всемирное. Для получения местного времени необходимо прибавить поправку, которая равна 2 ч.
Смотрите также архив погоды в соседних городах и на ближайших метеорологических станциях:
Партнеры нашего сайта:      
Пояснения к столбцам:
  • Ветер - указаны скорость ветра в м/с - средняя за 10 мин, порывы в срок и между сроками (в фигурных скобках) и направление, откуда дует ветер: С - северный,
  • СВ - северо-восточный, В - восточный, ЮВ - юго-восточный, Ю - южный, ЮЗ - юго-западный, З - западный, СЗ - северо-западный.
  • Видимость - горизонтальная дальность видимости в метрах или километрах. При видимости от 1 до 10 км при отсутствии осадков обычно наблюдается дымка, при ухудшении видимости до 1 км и менее - туман. В сухую погоду видимость может ухудшаться дымом, пылью или мглою.
  • Явления - указаны атмосферные явления, наблюдавшиеся в срок или в последний час перед сроком; фигурными скобками обозначены явления, наблюдавшиеся между сроками (за 1-3 часа до срока); квадратными скобками обозначены град или гололедные отложения с указанием их диаметра в мм.
  • Облачность - указаны через наклонную черту общая и нижняя облачность в баллах и высота нижней границы облаков в метрах; квадратными скобками обозначены формы облаков: Ci - перистые, Cs - перисто-слоистые, Cc - перисто-кучевые, Ac - высококучевые, As - высокослоистые, Sc - слоисто-кучевые, Ns - слоисто-дождевые, Cu - кучевые, Cb - кучево-дождевые. Подробнее классификацию облаков см. в Атласе облаков (PDF).
  • T - Температура воздуха - температура, измеренная на высоте 2 м над землей.
  • Td - Температура точки росы - температура, при понижении до которой содержащийся в воздухе водяной пар достигнет насыщения.
  • f - Относительная влажность воздуха - влажноcть воздуха, измеренная на высоте 2 м над землей.
  • Te - Эффективная температура - температура, которую ощущает одетый по сезону человек в тени. Характеристика душности погоды. При расчете учитывается влияние влажности воздуха и скорости ветра на теплоощущения человека.
  • Tes - Эффективная температура на солнце - температура, которую ощущает человек, с поправкой на солнечный нагрев. Характеристика знойности погоды. Зависит от высоты солнца над горизонтом, облачности и скорости ветра. Ночью, в пасмурную погоду, а также при ветре 12 м/с и более поправка равна нулю.
  • P - Атмосферное давление - приведенное к уровню моря атмосферное давление.
  • Po - Атмосферное давление - измеренное на уровне метеостанции атмосферное давление.
  • Tmin - Минимальная температура - минимум температуры воздуха на высоте 2 м над землей.
  • Tmax - Максимальная температура - максимум температуры воздуха на высоте 2 м над землей.
  • R - Количество осадков - Количество выпавших осадков за период времени, мм. При наведении курсора мыши на число - период времени, за который выпало указанное количество осадков.
  • R24 - Количество осадков - Количество выпавших осадков за 24 часа, мм.
  • S - Снежный покров - Высота снежного покрова, см. При наведении курсора мыши на число - состояние снежного покрова и степень покрытия местности в баллах.